2018-008C (43157 NORAD) Tracking and Keplerian Element Data

This shows tracking and keplerian element data for the satellite.

Feedback or suggestion? Click here.




ElementValue
Catalog43157
Name2018-008C
Epoch Orbit839
Epoch Day74.8592244
Epoch Year2018
RAAN150.8747
Inclination97.538
Eccentricity0.0017457
Argument of Perigee94.8842
Mean Anonmoly39.3138
Mean Motion15.09547925
Decay Rate2.43E-06
L11 43157U 18008C 18074.85922440 .00000243 00000-0 19049-4 0 9997
L22 43157 97.5380 150.8747 0017457 94.8842 39.3138 15.09547925 8399

Live tracking and technical data element details for 2018-008C (NORAD 43157). 2018-008C can be tracked NOW for your location showing map with azimuth and elevation plus other details from your city location.

Track the satellite on the map from your city or location and see movement details for azimuth, elevation, latitude, longitude, range, height, and movement on the map or in text.







IsCatalogInMostPopularTable: catalog: 43157, numindb: 61
Update: records affected: 1



GetName: 43157 2018-008C

Hit Count: updated at: Mon, 23 Jul 2018 07:47:42 GMT